Weather in Mezhova

Ukraine / Dnipropetrovsk Region     48°15′13″N   36°43′40″E
temp.,
°C
wind,
m/s
gust,
m/s
humid.,
%
clouds,
%
prec.,
mm/h
press.,
hPa
HPBL,
m
12 may, wed
wed1200:00+7e5789100 0.1 1013803
03:00+6ene489199 0.3 1014430
06:00+7ese5994100 3.1 1014789
09:00+8e5993100 5.4 1014738
12:00+10ese6985100 2.7 10141134
15:00+13s686299 4.6 10131676
18:00+12ssw476953 0.9 1013929
21:00+8se469026 1.1 101499
13 may, thu
thu1300:00+7sse349335 0.0 101565
03:00+6se22978 0.0 101525
06:00+8ese229496 0.0 101560
09:00+14ese237513 0.0 1015503
12:00+19sse345826 0.0 10141345
15:00+22se2450100 0.0 10131825
18:00+20ese3566100 0.1 1012105
21:00+16se4675100 0.1 101393
14 may, fri
fri1400:00+14ese489099 0.0 1012133
03:00+14ese41093100 0.0 1012178
06:00+15se411935 0.0 1011268
09:00+20sse577480 0.0 1011431
12:00+25sse4554100 0.0 10111002
15:00+26sse4647100 0.0 10101532
18:00+24s2461100 0.0 1010106
21:00+20s477169 0.0 1010127
15 may, sat
sat1500:00+17sw357639 0.3 1011103
03:00+14w348289 0.3 101148
06:00+15w1282100 0.0 101226
09:00+20sw23616 0.0 1013521
12:00+24wsw34451 0.0 10131366
15:00+25sw354219 0.0 10132322
18:00+23w355478 0.0 1013286
21:00+19nnw226088 0.0 101313
16 may, sun
sun1600:00+16ese22695 0.0 101317
03:00+15ene2271100 0.0 101316
06:00+15ene347490 0.0 101376
09:00+22ene5759100 0.0 1012503
12:00+25ene565076 0.0 10111318
15:00+27ene5645100 0.0 10101687
18:00+26ne5858100 0.0 1008495
21:00+20ene411765 0.0 1008195